Time,TemperatureF,DewpointF,PressureIn,WindDirection,WindDirectionDegrees,WindSpeedMPH,WindSpeedGustMPH,Humidity,HourlyPrecipIn,Conditions,Clouds,dailyrainin,SoftwareType,DateUTC
2013-05-22 00:03:00,68.0,64.0,29.77,SSW,199,0.0,-999.0,87,-99.99,,,-99.99,,2013-05-22 04:03:00,
2013-05-22 00:13:00,68.0,64.0,29.77,SSW,199,0.0,-999.0,87,-99.99,,,-99.99,,2013-05-22 04:13:00,
2013-05-22 00:22:00,68.0,64.0,29.77,SSW,198,0.0,-999.0,87,-99.99,,,-99.99,,2013-05-22 04:22:00,
2013-05-22 00:33:00,69.0,65.0,29.76,SSW,198,0.0,-999.0,87,-99.99,,,-99.99,,2013-05-22 04:33:00,
2013-05-22 00:43:00,70.0,65.0,29.76,SSW,198,0.0,-999.0,85,-99.99,,,-99.99,,2013-05-22 04:43:00,
2013-05-22 00:53:00,70.0,65.0,29.76,SSW,198,0.0,-999.0,85,-99.99,,,-99.99,,2013-05-22 04:53:00,
2013-05-22 01:02:00,70.0,64.0,29.76,SSW,198,0.0,-999.0,81,-99.99,,,-99.99,,2013-05-22 05:02:00,
2013-05-22 01:11:00,71.0,64.0,29.76,SSW,198,0.0,-999.0,79,-99.99,,,-99.99,,2013-05-22 05:11:00,
2013-05-22 01:21:00,71.0,64.0,29.76,SSW,198,0.0,-999.0,79,-99.99,,,-99.99,,2013-05-22 05:21:00,
2013-05-22 01:32:00,72.0,64.0,29.75,SSW,198,0.0,-999.0,76,-99.99,,,-99.99,,2013-05-22 05:32:00,
2013-05-22 01:42:00,72.0,64.0,29.75,SSW,198,0.0,-999.0,76,-99.99,,,-99.99,,2013-05-22 05:42:00,
2013-05-22 01:52:00,72.0,64.0,29.75,SSW,198,0.0,-999.0,76,-99.99,,,-99.99,,2013-05-22 05:52:00,
2013-05-22 02:01:00,72.0,64.0,29.75,SSW,198,0.0,-999.0,76,-99.99,,,-99.99,,2013-05-22 06:01:00,
2013-05-22 02:11:00,72.0,64.0,29.75,SSW,198,0.0,-999.0,76,-99.99,,,-99.99,,2013-05-22 06:11:00,
2013-05-22 02:21:00,72.0,64.0,29.75,SSW,198,0.0,-999.0,76,-99.99,,,-99.99,,2013-05-22 06:21:00,
2013-05-22 02:31:00,72.0,64.0,29.75,SSW,198,0.0,-999.0,76,-99.99,,,-99.99,,2013-05-22 06:31:00,
2013-05-22 02:42:00,72.0,64.0,29.75,SSW,198,0.0,-999.0,76,-99.99,,,-99.99,,2013-05-22 06:42:00,
2013-05-22 02:52:00,72.0,64.0,29.75,SSW,198,0.0,-999.0,76,-99.99,,,-99.99,,2013-05-22 06:52:00,
2013-05-22 03:01:00,72.0,64.0,29.75,SSW,198,0.0,-999.0,77,-99.99,,,-99.99,,2013-05-22 07:01:00,
2013-05-22 03:11:00,72.0,64.0,29.75,SSW,198,0.0,-999.0,77,-99.99,,,-99.99,,2013-05-22 07:11:00,
2013-05-22 03:21:00,71.0,64.0,29.75,SSW,198,0.0,-999.0,79,-99.99,,,-99.99,,2013-05-22 07:21:00,
2013-05-22 03:31:00,71.0,65.0,29.75,SSW,198,0.0,-999.0,80,-99.99,,,-99.99,,2013-05-22 07:31:00,
2013-05-22 03:41:00,71.0,65.0,29.75,SSW,198,0.0,-999.0,80,-99.99,,,-99.99,,2013-05-22 07:41:00,
2013-05-22 03:52:00,71.0,65.0,29.75,SSW,198,0.0,-999.0,80,-99.99,,,-99.99,,2013-05-22 07:52:00,
2013-05-22 04:02:00,70.0,64.0,29.74,SSW,198,0.0,-999.0,80,-99.99,,,-99.99,,2013-05-22 08:02:00,
2013-05-22 04:11:00,70.0,64.0,29.74,SSW,198,0.0,-999.0,80,-99.99,,,-99.99,,2013-05-22 08:11:00,
2013-05-22 04:22:00,70.0,64.0,29.73,SSW,198,0.0,-999.0,81,-99.99,,,-99.99,,2013-05-22 08:22:00,
2013-05-22 04:31:00,70.0,64.0,29.73,SSW,199,0.0,-999.0,81,-99.99,,,-99.99,,2013-05-22 08:31:00,
2013-05-22 04:42:00,70.0,64.0,29.73,SSW,199,0.0,-999.0,81,-99.99,,,-99.99,,2013-05-22 08:42:00,
2013-05-22 04:52:00,70.0,65.0,29.74,SSW,199,0.0,-999.0,83,-99.99,,,-99.99,,2013-05-22 08:52:00,
2013-05-22 05:01:00,69.0,64.0,29.73,SSW,200,0.0,-999.0,85,-99.99,,,-99.99,,2013-05-22 09:01:00,
2013-05-22 05:11:00,69.0,64.0,29.73,SSW,200,0.0,-999.0,85,-99.99,,,-99.99,,2013-05-22 09:11:00,
2013-05-22 05:21:00,69.0,65.0,29.72,SSW,200,0.0,-999.0,86,-99.99,,,-99.99,,2013-05-22 09:21:00,
2013-05-22 05:32:00,69.0,65.0,29.72,SSW,199,0.0,-999.0,86,-99.99,,,-99.99,,2013-05-22 09:32:00,
2013-05-22 05:42:00,69.0,65.0,29.72,SSW,199,0.0,-999.0,86,-99.99,,,-99.99,,2013-05-22 09:42:00,
2013-05-22 05:53:00,69.0,65.0,29.73,SSW,199,0.0,-999.0,86,-99.99,,,-99.99,,2013-05-22 09:53:00,
2013-05-22 06:03:00,68.0,64.0,29.73,SSW,199,0.0,-999.0,86,-99.99,,,-99.99,,2013-05-22 10:03:00,
2013-05-22 06:12:00,68.0,64.0,29.73,SSW,200,0.0,-999.0,86,-99.99,,,-99.99,,2013-05-22 10:12:00,
2013-05-22 06:22:00,68.0,64.0,29.73,SSW,200,0.0,-999.0,86,-99.99,,,-99.99,,2013-05-22 10:22:00,
2013-05-22 06:33:00,68.0,64.0,29.73,SSW,200,0.0,-999.0,87,-99.99,,,-99.99,,2013-05-22 10:33:00,
2013-05-22 06:42:00,68.0,64.0,29.72,SSW,200,0.0,-999.0,87,-99.99,,,-99.99,,2013-05-22 10:42:00,
2013-05-22 06:52:00,68.0,64.0,29.72,SSW,200,0.0,-999.0,87,-99.99,,,-99.99,,2013-05-22 10:52:00,
2013-05-22 07:02:00,68.0,64.0,29.73,SSW,200,0.0,-999.0,87,-99.99,,,-99.99,,2013-05-22 11:02:00,
2013-05-22 07:11:00,68.0,64.0,29.73,SSW,200,0.0,-999.0,87,-99.99,,,-99.99,,2013-05-22 11:11:00,
2013-05-22 07:21:00,68.0,64.0,29.73,SSW,200,0.0,-999.0,88,-99.99,,,-99.99,,2013-05-22 11:21:00,
2013-05-22 07:32:00,68.0,64.0,29.73,SSW,200,0.0,-999.0,87,-99.99,,,-99.99,,2013-05-22 11:32:00,
2013-05-22 07:41:00,68.0,64.0,29.72,SSW,199,0.0,-999.0,87,-99.99,,,-99.99,,2013-05-22 11:41:00,
2013-05-22 07:52:00,68.0,64.0,29.72,SSW,199,0.0,-999.0,87,-99.99,,,-99.99,,2013-05-22 11:52:00,
2013-05-22 08:02:00,68.0,64.0,29.72,SSW,196,0.0,-999.0,87,-99.99,,,-99.99,,2013-05-22 12:02:00,
2013-05-22 08:12:00,68.0,64.0,29.72,SSW,196,0.0,-999.0,87,-99.99,,,-99.99,,2013-05-22 12:12:00,
2013-05-22 08:22:00,68.0,64.0,29.72,SSW,192,0.0,-999.0,87,-99.99,,,-99.99,,2013-05-22 12:22:00,
2013-05-22 08:32:00,68.0,64.0,29.72,SSW,192,0.0,-999.0,88,-99.99,,,-99.99,,2013-05-22 12:32:00,
2013-05-22 08:42:00,67.0,63.0,29.72,SSW,192,0.0,-999.0,88,-99.99,,,-99.99,,2013-05-22 12:42:00,
2013-05-22 08:52:00,67.0,63.0,29.72,SSW,192,0.0,-999.0,88,-99.99,,,-99.99,,2013-05-22 12:52:00,
2013-05-22 09:01:00,67.0,64.0,29.72,SSW,192,1.0,-999.0,89,-99.99,,,-99.99,,2013-05-22 13:01:00,
2013-05-22 09:11:00,67.0,64.0,29.72,SSW,192,1.0,-999.0,89,-99.99,,,-99.99,,2013-05-22 13:11:00,
2013-05-22 09:22:00,66.0,63.0,29.72,SSW,192,0.0,-999.0,91,-99.99,,,-99.99,,2013-05-22 13:22:00,
2013-05-22 09:32:00,66.0,64.0,29.72,South,191,1.0,-999.0,92,-99.99,,,-99.99,,2013-05-22 13:32:00,
2013-05-22 09:41:00,66.0,64.0,29.71,South,189,1.0,-999.0,93,-99.99,,,-99.99,,2013-05-22 13:41:00,
2013-05-22 09:52:00,66.0,64.0,29.71,South,189,1.0,-999.0,93,-99.99,,,-99.99,,2013-05-22 13:52:00,
2013-05-22 10:02:00,66.0,64.0,29.72,WSW,241,1.0,-999.0,94,-99.99,,,-99.99,,2013-05-22 14:02:00,
2013-05-22 10:11:00,65.0,63.0,29.71,South,185,1.0,-999.0,94,-99.99,,,-99.99,,2013-05-22 14:11:00,
2013-05-22 10:21:00,65.0,63.0,29.71,South,185,1.0,-999.0,94,-99.99,,,-99.99,,2013-05-22 14:21:00,
2013-05-22 10:32:00,66.0,64.0,29.71,South,186,1.0,-999.0,94,-99.99,,,-99.99,,2013-05-22 14:32:00,
2013-05-22 10:42:00,66.0,64.0,29.71,South,186,1.0,-999.0,94,-99.99,,,-99.99,,2013-05-22 14:42:00,
2013-05-22 10:52:00,66.0,64.0,29.70,South,185,1.0,-999.0,94,-99.99,,,-99.99,,2013-05-22 14:52:00,
2013-05-22 11:01:00,66.0,65.0,29.70,South,175,1.0,-999.0,95,-99.99,,,-99.99,,2013-05-22 15:01:00,
2013-05-22 11:11:00,66.0,65.0,29.70,South,175,1.0,-999.0,95,-99.99,,,-99.99,,2013-05-22 15:11:00,
2013-05-22 11:21:00,67.0,65.0,29.70,South,175,1.0,-999.0,94,-99.99,,,-99.99,,2013-05-22 15:21:00,
2013-05-22 11:32:00,66.0,64.0,29.71,South,184,2.0,-999.0,94,-99.99,,,-99.99,,2013-05-22 15:32:00,
2013-05-22 11:42:00,66.0,64.0,29.71,South,184,2.0,-999.0,94,-99.99,,,-99.99,,2013-05-22 15:42:00,
2013-05-22 11:53:00,67.0,65.0,29.72,SW,222,2.0,-999.0,94,-99.99,,,-99.99,,2013-05-22 15:53:00,
2013-05-22 12:03:00,68.0,66.0,29.72,South,178,2.0,-999.0,92,-99.99,,,-99.99,,2013-05-22 16:03:00,
2013-05-22 12:12:00,68.0,66.0,29.72,South,178,2.0,-999.0,92,-99.99,,,-99.99,,2013-05-22 16:12:00,
2013-05-22 12:23:00,68.0,65.0,29.72,SSW,196,2.0,-999.0,90,-99.99,,,-99.99,,2013-05-22 16:23:00,
2013-05-22 12:32:00,69.0,65.0,29.72,SSW,202,2.0,-999.0,87,-99.99,,,-99.99,,2013-05-22 16:32:00,
2013-05-22 12:42:00,69.0,65.0,29.72,SSW,202,2.0,-999.0,87,-99.99,,,-99.99,,2013-05-22 16:42:00,
2013-05-22 12:52:00,71.0,65.0,29.71,SSW,196,2.0,-999.0,80,-99.99,,,-99.99,,2013-05-22 16:52:00,
2013-05-22 13:02:00,71.0,64.0,29.71,South,191,3.0,-999.0,79,-99.99,,,-99.99,,2013-05-22 17:02:00,
2013-05-22 13:11:00,72.0,64.0,29.71,SW,219,5.0,-999.0,76,-99.99,,,-99.99,,2013-05-22 17:11:00,
2013-05-22 13:22:00,72.0,64.0,29.71,SW,219,5.0,-999.0,76,-99.99,,,-99.99,,2013-05-22 17:22:00,
2013-05-22 13:33:00,72.0,62.0,29.70,WSW,256,4.0,-999.0,72,-99.99,,,-99.99,,2013-05-22 17:33:00,
2013-05-22 13:42:00,72.0,62.0,29.70,WSW,256,4.0,-999.0,72,-99.99,,,-99.99,,2013-05-22 17:42:00,
2013-05-22 13:53:00,72.0,64.0,29.70,SSW,192,6.0,-999.0,75,-99.99,,,-99.99,,2013-05-22 17:53:00,
2013-05-22 14:02:00,72.0,64.0,29.70,South,181,4.0,-999.0,75,-99.99,,,-99.99,,2013-05-22 18:02:00,
2013-05-22 14:14:00,72.0,64.0,29.70,South,181,4.0,-999.0,75,-99.99,,,-99.99,,2013-05-22 18:14:00,
2013-05-22 14:22:00,72.0,63.0,29.70,SSW,203,5.0,-999.0,73,-99.99,,,-99.99,,2013-05-22 18:22:00,
2013-05-22 14:33:00,71.0,64.0,29.70,SSW,210,4.0,-999.0,78,-99.99,,,-99.99,,2013-05-22 18:33:00,
2013-05-22 14:42:00,71.0,64.0,29.70,SSW,210,4.0,-999.0,78,-99.99,,,-99.99,,2013-05-22 18:42:00,
2013-05-22 14:52:00,72.0,64.0,29.70,SW,224,4.0,-999.0,77,-99.99,,,-99.99,,2013-05-22 18:52:00,
2013-05-22 15:02:00,73.0,62.0,29.70,SW,227,6.0,-999.0,68,-99.99,,,-99.99,,2013-05-22 19:02:00,
2013-05-22 15:11:00,73.0,63.0,29.69,SW,217,6.0,-999.0,70,-99.99,,,-99.99,,2013-05-22 19:11:00,
2013-05-22 15:21:00,73.0,63.0,29.69,SW,217,6.0,-999.0,70,-99.99,,,-99.99,,2013-05-22 19:21:00,
2013-05-22 15:32:00,70.0,63.0,29.70,SW,219,4.0,-999.0,78,-99.99,,,-99.99,,2013-05-22 19:32:00,
2013-05-22 15:42:00,70.0,63.0,29.70,SSW,212,4.0,-999.0,79,-99.99,,,-99.99,,2013-05-22 19:42:00,
2013-05-22 15:52:00,70.0,63.0,29.70,SSW,212,4.0,-999.0,79,-99.99,,,-99.99,,2013-05-22 19:52:00,
2013-05-22 16:02:00,71.0,63.0,29.70,South,184,2.0,-999.0,76,-99.99,,,-99.99,,2013-05-22 20:02:00,
2013-05-22 16:11:00,71.0,63.0,29.71,WSW,250,5.0,-999.0,76,-99.99,,,-99.99,,2013-05-22 20:11:00,
2013-05-22 16:21:00,71.0,63.0,29.71,WSW,250,5.0,-999.0,76,-99.99,,,-99.99,,2013-05-22 20:21:00,
2013-05-22 16:32:00,67.0,62.0,29.72,SW,223,2.0,-999.0,84,-99.99,,,-99.99,,2013-05-22 20:32:00,
2013-05-22 16:42:00,65.0,62.0,29.72,WSW,247,0.0,-999.0,89,-99.99,,,-99.99,,2013-05-22 20:42:00,
2013-05-22 16:52:00,65.0,62.0,29.72,WSW,247,0.0,-999.0,89,-99.99,,,-99.99,,2013-05-22 20:52:00,
2013-05-22 17:01:00,65.0,62.0,29.72,WSW,246,1.0,-999.0,91,-99.99,,,-99.99,,2013-05-22 21:01:00,
2013-05-22 17:11:00,64.0,62.0,29.72,WSW,240,1.0,-999.0,92,-99.99,,,-99.99,,2013-05-22 21:11:00,
2013-05-22 17:21:00,64.0,62.0,29.72,WSW,240,1.0,-999.0,92,-99.99,,,-99.99,,2013-05-22 21:21:00,
2013-05-22 17:32:00,64.0,62.0,29.72,SW,226,1.0,-999.0,93,-99.99,,,-99.99,,2013-05-22 21:32:00,
2013-05-22 17:42:00,64.0,62.0,29.72,SW,226,1.0,-999.0,93,-99.99,,,-99.99,,2013-05-22 21:42:00,
2013-05-22 17:53:00,65.0,63.0,29.72,SW,226,1.0,-999.0,94,-99.99,,,-99.99,,2013-05-22 21:53:00,
2013-05-22 18:03:00,65.0,63.0,29.72,SW,224,1.0,-999.0,94,-99.99,,,-99.99,,2013-05-22 22:03:00,
2013-05-22 18:12:00,65.0,63.0,29.72,SW,226,1.0,-999.0,93,-99.99,,,-99.99,,2013-05-22 22:12:00,
2013-05-22 18:22:00,65.0,63.0,29.72,SW,226,1.0,-999.0,93,-99.99,,,-99.99,,2013-05-22 22:22:00,
2013-05-22 18:33:00,65.0,63.0,29.71,SW,226,0.0,-999.0,92,-99.99,,,-99.99,,2013-05-22 22:33:00,
2013-05-22 18:42:00,66.0,63.0,29.71,SW,226,0.0,-999.0,91,-99.99,,,-99.99,,2013-05-22 22:42:00,
2013-05-22 18:52:00,66.0,63.0,29.71,SW,226,0.0,-999.0,91,-99.99,,,-99.99,,2013-05-22 22:52:00,
2013-05-22 19:02:00,66.0,63.0,29.71,WNW,298,0.0,-999.0,89,-99.99,,,-99.99,,2013-05-22 23:02:00,
2013-05-22 19:12:00,66.0,63.0,29.71,WNW,298,0.0,-999.0,89,-99.99,,,-99.99,,2013-05-22 23:12:00,
2013-05-22 19:21:00,66.0,62.0,29.71,WNW,299,0.0,-999.0,87,-99.99,,,-99.99,,2013-05-22 23:21:00,
2013-05-22 19:32:00,66.0,61.0,29.72,NW,306,0.0,-999.0,85,-99.99,,,-99.99,,2013-05-22 23:32:00,
2013-05-22 19:42:00,66.0,61.0,29.72,NW,306,0.0,-999.0,85,-99.99,,,-99.99,,2013-05-22 23:42:00,
2013-05-22 19:52:00,67.0,61.0,29.72,WSW,241,0.0,-999.0,82,-99.99,,,-99.99,,2013-05-22 23:52:00,
2013-05-22 20:01:00,67.0,61.0,29.72,WSW,241,0.0,-999.0,82,-99.99,,,-99.99,,2013-05-23 00:01:00,
2013-05-22 20:11:00,67.0,61.0,29.72,WSW,241,0.0,-999.0,82,-99.99,,,-99.99,,2013-05-23 00:11:00,
2013-05-22 20:22:00,67.0,61.0,29.73,WSW,243,0.0,-999.0,82,-99.99,,,-99.99,,2013-05-23 00:22:00,
2013-05-22 20:31:00,67.0,61.0,29.73,WSW,244,0.0,-999.0,82,-99.99,,,-99.99,,2013-05-23 00:31:00,
2013-05-22 20:42:00,67.0,61.0,29.73,WSW,244,0.0,-999.0,82,-99.99,,,-99.99,,2013-05-23 00:42:00,
2013-05-22 20:52:00,67.0,62.0,29.73,WSW,244,0.0,-999.0,83,-99.99,,,-99.99,,2013-05-23 00:52:00,
2013-05-22 21:01:00,67.0,62.0,29.74,WSW,244,0.0,-999.0,85,-99.99,,,-99.99,,2013-05-23 01:01:00,
2013-05-22 21:11:00,67.0,63.0,29.74,WSW,244,0.0,-999.0,86,-99.99,,,-99.99,,2013-05-23 01:11:00,
2013-05-22 21:21:00,67.0,63.0,29.74,WSW,244,0.0,-999.0,86,-99.99,,,-99.99,,2013-05-23 01:21:00,
2013-05-22 21:32:00,66.0,62.0,29.74,WSW,246,0.0,-999.0,86,-99.99,,,-99.99,,2013-05-23 01:32:00,
2013-05-22 21:42:00,66.0,62.0,29.74,WSW,246,0.0,-999.0,87,-99.99,,,-99.99,,2013-05-23 01:42:00,
2013-05-22 21:52:00,66.0,62.0,29.74,WSW,246,0.0,-999.0,87,-99.99,,,-99.99,,2013-05-23 01:52:00,
2013-05-22 22:01:00,66.0,62.0,29.74,WSW,246,0.0,-999.0,88,-99.99,,,-99.99,,2013-05-23 02:01:00,
2013-05-22 22:11:00,66.0,62.0,29.75,WSW,246,0.0,-999.0,88,-99.99,,,-99.99,,2013-05-23 02:11:00,
2013-05-22 22:21:00,66.0,62.0,29.75,WSW,246,0.0,-999.0,88,-99.99,,,-99.99,,2013-05-23 02:21:00,
2013-05-22 22:31:00,65.0,60.0,29.75,WSW,244,1.0,-999.0,83,-99.99,,,-99.99,,2013-05-23 02:31:00,
2013-05-22 22:42:00,65.0,60.0,29.75,WSW,244,1.0,-999.0,83,-99.99,,,-99.99,,2013-05-23 02:42:00,
2013-05-22 22:52:00,65.0,60.0,29.75,WSW,244,1.0,-999.0,83,-99.99,,,-99.99,,2013-05-23 02:52:00,
2013-05-22 23:01:00,65.0,58.0,29.76,WSW,256,1.0,-999.0,79,-99.99,,,-99.99,,2013-05-23 03:01:00,
2013-05-22 23:11:00,65.0,58.0,29.76,WSW,256,1.0,-999.0,79,-99.99,,,-99.99,,2013-05-23 03:11:00,
2013-05-22 23:21:00,65.0,59.0,29.76,WSW,256,0.0,-999.0,80,-99.99,,,-99.99,,2013-05-23 03:21:00,
2013-05-22 23:33:00,64.0,58.0,29.76,WSW,256,0.0,-999.0,82,-99.99,,,-99.99,,2013-05-23 03:33:00,
2013-05-22 23:43:00,64.0,58.0,29.76,WSW,256,0.0,-999.0,82,-99.99,,,-99.99,,2013-05-23 03:43:00,
2013-05-22 23:53:00,64.0,59.0,29.77,WSW,250,0.0,-999.0,84,-99.99,,,-99.99,,2013-05-23 03:53:00,